www.pogodaiklimat.ru

Погода и климат >> Архив погоды >> Россия >> Якутия >> Намцы


ПОГОДА в Намцах

  • Прогноз погоды в Намцах
  • Монитор погоды в Намцах
  • Климат города

АРХИВ ПОГОДЫ в Намцах

Время (UTC), дата Ветер
(напр.,м/с)
 
Видим.   Явления Облачность Т
(С)
Тd
(С)
f
(%)
Тe
(С)
Тes
(С)
Комфортность P
(гПа)
Po
(гПа)
Тmin
(С)
Tmax
(С)
R
(мм)
R24
(мм)
S
(см)
21 10.07 Ю 2 10 км гроза, ливневой дождь 10/8 600 м
[Cb calv Ac cast]
+21.4 +15.8 70 +25 +25 комфорт 1001.8 991.5
00 11.07 СЗ 1 20 км {гроза, ливн. осадки} 9/0
[Ac cast Ci sp]
+23.2 +16.1 64 +28 +32 душно 1002.3 992.1 +19.1 1
03 11.07 СВ 3 20 км 3/0
[Ci sp]
+26.9 +16.4 53 +30 +40 душно 1000.7 990.6
06 11.07 С 4 20 км 3/3
[Cu med, cong]
+27.8 +16.6 51 +31 +36 душно 1000.1 990.0
09 11.07 З 4 50 км гроза без осадков 8/6 1500 м
[Cb cap Ac cast Ci ing]
+22.6 +15.6 65 +27 +27 душно 1000.5 990.3
12 11.07 З 2 20 км дым {гроза, ливн. осадки} 8/0
[Ac cast Ci ing]
+22.2 +15.8 67 +26 +26 душно 1000.4 990.1 +28.5 0.3
15 11.07 Ю 1 20 км дым 4/0
[Ac cuf Ci ing]
+17.5 +14.0 80 +19 +19 1000.7 990.2
18 11.07 ЮЗ 1 20 км дым 3/0
[Ac cuf Ci ing]
+16.8 +14.9 89 +18 +18 1000.6 990.1
21 11.07 ЮЗ 1 20 км дым 3/0
[Ac cast Ci sp]
+17.7 +15.9 89 +19 +20 1000.3 989.8
00 12.07 З 2 4000 м мгла 8/0
[Ac cast]
+22.2 +17.4 74 +27 +30 душно 1000.0 989.8 +16.4
03 12.07 С 1 4000 м мгла 8/1 1000 м
[Cu med, cong Ac trans]
+24.7 +16.4 60 +28 +35 душно 999.7 989.5
06 12.07 С 2 10 км гроза без осадков {ливн. осадки} 9/4 1000 м
[Cb cap Ac cuf]
+23.1 +15.1 61 +27 +30 душно 998.8 988.6
09 12.07 С 1 20 км {гроза} 10/0
[Ac cuf Ci sp]
+23.2 +14.8 59 +27 +30 душно 998.8 988.6
12 12.07 С 4 20 км {гроза} 10/0
[Ac trans Ci]
+21.7 +12.5 56 +24 +24 комфорт 999.4 989.1 +26.8 2
15 12.07 СЗ 3 50 км 9/0
[Ac As]
+18.7 +9.7 56 +19 +19 999.8 989.4
18 12.07 СЗ 1 50 км 10/0
[Ac As]
+16.4 +7.8 57 +17 +17 1000.3 989.8
21 12.07 З 2 50 км 9/0
[Ac As Ci fib]
+15.8 +6.7 55 +16 +17 1000.7 990.2
00 13.07 С 3 50 км 3/0
[Ac trans Ci fib]
+18.4 +7.6 49 +19 +25 1000.3 989.9 +15.3
03 13.07 СЗ 2 50 км 3/0
[Cc]
+23.2 +5.3 31 +23 +35 комфорт 1000.0 989.8
06 13.07 СЗ 3 50 км 6/0
[Ac trans Cc]
+25.2 +3.8 25 +24 +31 комфорт 999.6 989.4
09 13.07 СЗ 2 50 км 9/0
[Ac As]
+24.6 +4.1 26 +24 +25 комфорт 999.8 989.6
12 13.07 СЗ 1 50 км 9/0
[Ac As]
+22.4 +6.4 35 +23 +23 комфорт 1000.6 990.3 +26.2
15 13.07 З 1 50 км 9/0
[Ac As]
+18.1 +6.4 46 +19 +19 1000.8 990.3
18 13.07 штиль 0 50 км 10/10 270 м
[St]
+14.4 +7.0 61 +14 +14 1000.9 990.3
21 13.07 штиль 0 4000 м мгла 10/10 150 м
[St]
+15.5 +7.7 60 +15 +15 1001.3 990.8
00 14.07 СЗ 1 500 м мгла 3/0
[Ac trans]
+18.4 +10.6 60 +20 +27 1001.7 991.2 +13.6
03 14.07 С 3 500 м мгла {туман} 8/0
[Ac cast]
+22.2 +11.1 49 +24 +29 комфорт 1001.2 990.9
06 14.07 СЗ 3 200 м мгла {туман} 10/0
[Ac und]
+22.8 +12.3 52 +26 +28 жарко 1001.1 990.9
09 14.07 СЗ 2 200 м мгла {туман} 10/0
[Ac und]
+23.2 +11.4 47 +25 +26 комфорт 1001.4 991.2
12 14.07 С 1 2000 м мгла 5/0
[Ac trans Ci fib]
+21.0 +11.7 55 +24 +24 комфорт 1002.2 991.9 +24.4
15 14.07 СЗ 1 2000 м мгла 6/0
[Ac cast]
+17.8 +10.5 62 +19 +19 1002.8 992.3
18 14.07 С 2 2000 м мгла 8/0
[Ac trans Ci fib]
+16.3 +8.9 62 +16 +16 1002.9 992.4
21 14.07 С 2 2000 м мгла 8/0
[Ac trans Ci fib]
+17.6 +13.7 78 +18 +19 1003.0 992.5
00 15.07 СВ 1 4000 м мгла 10/9 420 м
[St Ac und]
+20.4 +18.1 87 +25 +25 комфорт 1003.2 992.8 +15.9
03 15.07 СВ 1 10 км слабый дождь 10/10 1260 м
[Sc]
+20.0 +18.2 89 +24 +24 комфорт 1003.5 993.1
06 15.07 В 2 20 км в посл. час дождь 9/1 600 м
[Cu med, cong Ac As]
+21.4 +18.4 83 +26 +29 душно 1003.3 992.9
09 15.07 СВ 1 20 км 9/1 600 м
[Cb cap Ac As]
+21.7 +18.5 82 +26 +28 душно 1003.3 993.0
12 15.07 С 2 20 км 9/8 500 м
[St Ac As]
+20.7 +19.0 90 +26 +26 душно 1003.6 993.2 +21.9 0.3
15 15.07 ЮВ 1 4000 м слабый дождь 10/8 270 м
[Frnb As op]
+18.5 +17.7 95 +20 +20 1004.0 993.6
18 15.07 В 1 2000 м дымка {дождь} 10/10 90 м
[St]
+17.8 +17.5 98 +19 +19 1004.0 993.6
21 15.07 Ю 1 4000 м мгла 10/6 1020 м
[Sc Ac und]
+16.8 +16.1 96 +18 +18 1004.3 993.8
00 16.07 штиль 0 4000 м в посл. час морось 10/10 500 м
[St]
+16.9 +15.1 89 +17 +17 1004.6 994.1 +16.7 20
03 16.07 В 1 4000 м мгла 10/10 540 м
[St]
+17.6 +15.6 88 +19 +19 1004.7 994.2
06 16.07 ЮВ 1 4000 м мгла 10/10 570 м
[St]
+18.2 +15.3 83 +20 +20 1004.8 994.3
09 16.07 СВ 1 4000 м мгла 8/3 1000 м
[Cu med, cong Ac cast Cc]
+20.6 +17.4 82 +25 +27 комфорт 1004.4 994.0
12 16.07 ЮЗ 1 4000 м мгла 5/3 1000 м
[Cb calv Ci fib]
+18.6 +16.4 87 +21 +21 комфорт 1004.4 994.0 +21.5
15 16.07 штиль 0 4000 м мгла 3/3 1000 м
[Cb calv]
+16.6 +15.9 96 +16 +16 1004.4 994.0
18 16.07 штиль 0 2000 м мгла 5/0
[Ac trans]
+16.1 +15.4 96 +16 +16 1005.0 994.5
21 16.07 штиль 0 50 м туман ?/? +16.3 +15.9 97 +16 +16 1005.3 994.8
00 17.07 С 2 4000 м мгла {туман} 10/10 180 м
[St]
+18.1 +16.6 91 +19 +19 1005.3 994.9 +15.0
03 17.07 СВ 2 4000 м мгла 10/10 600 м
[Sc]
+20.6 +17.0 80 +25 +25 комфорт 1005.0 994.6
06 17.07 СЗ 2 10 км дым 10/3 600 м
[Cu med, cong Ac und]
+21.2 +16.8 76 +25 +27 комфорт 1004.2 993.8
09 17.07 З 3 20 км дым 10/0
[Ac As]
+20.0 +12.3 61 +22 +23 комфорт 1004.6 994.2
12 17.07 З 1 20 км дым 10/0
[Ac As]
+17.8 +13.2 74 +19 +19 1004.4 993.9 +21.5
15 17.07 З 2 50 км 10/0
[Ac As Cs]
+16.2 +6.8 54 +16 +16 1004.4 993.8
18 17.07 СЗ 2 50 км 6/0
[Cc]
+12.9 +5.0 59 +12 +12 1004.9 994.2

 

Местоположение метеостанции Намцы (Якутия, Россия): широта 62.72 долгота 129.60 высота над уровнем моря 90 м.

В архиве по умолчанию представлена погода в Намцах за последнюю неделю. Архивные данные за месяц целиком и за предыдущие месяцы, начиная с января 2011 года, Вы можете получить, выбрав интересующий диапазон дат из раскрывающегося списка и нажав кнопку "Ввод!".


*Определитесь, кто Вы:
робот инопланетянин человек

Внимание! Время в таблицах - всемирное. Для получения местного времени необходимо прибавить поправку, которая в Намцах равна 9 ч.

Смотрите также архив погоды в соседних городах и на ближайших метеорологических станциях:

Погода в Якутске (Якутия, Россия) (80 км)
Погода в Батамае (Якутия, Россия) (90 км)
Погода в Верхоянском Перевозе (Якутия, Россия) (138 км)
Погода в Покровске (Якутия, Россия) (140 км)
Погода в Бердигестяхе (Якутия, Россия) (143 км)
Погода в Сеген-Кюели (Якутия, Россия) (147 км)
Погода в Чурапче (Якутия, Россия) (173 км)
Погода в Сангаре (Якутия, Россия) (175 км)
Погода в Ытык-Кюёле (Якутия, Россия) (204 км)
Погода в Сого-Хае (Якутия, Россия) (235 км)

Пояснения к столбцам:

Ветер - указаны скорость ветра в м/с - средняя за 10 мин, порывы в срок и между сроками (в фигурных скобках) и направление, откуда дует ветер: С - северный, СВ - северо-восточный, В - восточный, ЮВ - юго-восточный, Ю - южный, ЮЗ - юго-западный, З - западный, СЗ - северо-западный.
Видимость - горизонтальная дальность видимости в метрах или километрах. При видимости от 1 до 10 км при отсутствии осадков обычно наблюдается дымка, при ухудшении видимости до 1 км и менее - туман. В сухую погоду видимость может ухудшаться дымом, пылью или мглою.
Явления - указаны атмосферные явления, наблюдавшиеся в срок или в последний час перед сроком; фигурными скобками обозначены явления, наблюдавшиеся между сроками (за 1-3 часа до срока); квадратными скобками обозначены град или гололедные отложения с указанием их диаметра в мм.
Облачность - указаны через наклонную черту общая и нижняя облачность в баллах и высота нижней границы облаков в метрах; квадратными скобками обозначены формы облаков: Ci - перистые, Cs - перисто-слоистые, Cc - перисто-кучевые, Ac - высококучевые, As - высокослоистые, Sc - слоисто-кучевые, Ns - слоисто-дождевые, Cu - кучевые, Cb - кучево-дождевые. Подробнее классификацию облаков см. в Атласе облаков (PDF).
T - Температура воздуха - температура, измеренная на высоте 2 м над землей.
Td - Температура точки росы - температура, при понижении до которой содержащийся в воздухе водяной пар достигнет насыщения.
f - Относительная влажность воздуха - влажноcть воздуха, измеренная на высоте 2 м над землей.
Te - Эффективная температура - температура, которую ощущает одетый по сезону человек в тени. Характеристика душности погоды. При расчете учитывается влияние влажности воздуха и скорости ветра на теплоощущения человека.
Tes - Эффективная температура на солнце - температура, которую ощущает человек, с поправкой на солнечный нагрев. Характеристика знойности погоды. Зависит от высоты солнца над горизонтом, облачности и скорости ветра. Ночью, в пасмурную погоду, а также при ветре 12 м/с и более поправка равна нулю.
P - Атмосферное давление - приведенное к уровню моря атмосферное давление.
Po - Атмосферное давление - измеренное на уровне метеостанции атмосферное давление.
Tmin - Минимальная температура - минимум температуры воздуха на высоте 2 м над землей.
Tmax - Максимальная температура - максимум температуры воздуха на высоте 2 м над землей.
R - Количество осадков - Количество выпавших осадков за период времени, мм. При наведении курсора мыши на число - период времени, за который выпало указанное количество осадков.
R24 - Количество осадков - Количество выпавших осадков за 24 часа, мм.
S - Снежный покров - Высота снежного покрова, см. При наведении курсора мыши на число - состояние снежного покрова и степень покрытия местности в баллах.